sat.trackr.live / text

‹ back to catalog

STARLINK-34057

NORAD 63814 · 2025-092L

PAYLOAD ACTIVE UNKNOWN

§ Identity

Operator
Country
US
Launch date
2025-05-04
Launch site
AFETR
Launch vehicle
Mass (kg)
RCS (m²)

Purposes: comms

External: N2YO · Heavens-Above · Gunter

§ Orbital elements

Epoch: 2026-09-20T23:17:24.185184Z

Period
94.27 min
Inclination
42.9996°
Eccentricity
0.0000731
Mean motion
15.27581326 rev/d
Perigee alt
482.5 km
Apogee alt
483.5 km
Semi-major
6,861.2 km
B*
3.2668e-4
RAAN
149.4071°
Arg perigee
256.3723°
Mean anomaly
103.7048°
Rev number
7,848

§ Raw data

STARLINK-340571 63814U 25092L   26263.97041881  .00008739  00000+0  32668-3 0  99912 63814  42.9996 149.4071 0000731 256.3723 103.7048 15.27581326 78488

JSON: /api/v1/satellites/63814 · /tle

For live sub-satellite position, see the globe view (requires WebGL).

§ Visibility from observer

Set your observer location to see the next 7 days of passes ≥ 10°. The values pass through the URL so the page stays shareable.

No JS? Fill the form by hand. The geolocation button needs JavaScript.